Weather Roundup
Issued by NWS Chicago, IL

Home | Current Version | Previous Version | Text Only | Print | Product List | Glossary Off
Versions: 1 2 3 4 5 6 7 8 9 10 11 12 13 14 15 16 17 18 19 20 21 22 23 24 25 26 27 28 29 30 31 32 33 34 35 36 37 38 39 40 41 42 43 44 45 46 47 48 49 50

000
NZUS59 KLOT 280808
HRRLOT

CHICAGO AREA WEATHER ROUNDUP
NATIONAL WEATHER SERVICE CHICAGO/ROMEOVILLE IL
300 AM CDT SUN AUG 28 2016

NOTE: "FAIR" INDICATES FEW OR NO CLOUDS BELOW 12,000 FEET WITH NO
SIGNIFICANT WEATHER AND/OR OBSTRUCTIONS TO VISIBILITY.

* THESE STATIONS ARE NOT UNDER NWS QUALITY CONTROL. THEY ALSO MAY NOT
  REPORT WEATHER SUCH AS PRECIPITATION OR FOG.

ILZ005-006-012>014-019>023-280900-
NORTHEAST ILLINOIS

CITY           SKY/WX    TMP DP  RH WIND       PRES   REMARKS
OHARE          MOCLDY    73  70  90 CALM      30.12R
MIDWAY         MOCLDY    75  70  84 W5        30.11R
AURORA         PTCLDY    69  67  93 CALM      30.13R
LANSING*       CLOUDY    74  72  94 CALM      30.13R
JOLIET*        PTCLDY    73  72  98 CALM      30.12R
WAUKEGAN       PTCLDY    70  69  97 N3        30.12R
DUPAGE AIRPORT NOT AVBL
WHEELING       PTCLDY    72  68  87 CALM      30.13R
KANKAKEE*      CLOUDY    72  70  94 CALM      30.13S
MORRIS*        PTCLDY    71  70  97 CALM      30.11R
LEWIS AIRPORT* MOCLDY    70  70 100 CALM      30.12S
$$

WIZ051-052-058>065-066-070>072-280900-
SOUTHEAST WISCONSIN

CITY           SKY/WX    TMP DP  RH WIND       PRES   REMARKS
MILWAUKEE      PTCLDY    67  64  90 SE5       30.13R
KENOSHA*       CLEAR     69  67  93 CALM      30.13R
RACINE*        PTCLDY    70  67  90 MISG      30.14R
BURLINGTON     FOG       62  62  99 CALM      30.13R VSB 1/4
WAUKESHA       FOG       63  63 100 CALM      30.14R VSB 3/4
$$

INZ001>003-010>013-019-020-280900-
NORTHWEST INDIANA

CITY           SKY/WX    TMP DP  RH WIND       PRES   REMARKS
GARY*          CLOUDY    76  74  93 CALM      30.12R
MICHIGAN CITY* NOT AVBL
RENSSELAER*    NOT AVBL
VALPARAISO     CLOUDY    73  71  93 S5        30.13S
$$

LMZ740>746-280900-
SOUTHERN LAKE MICHIGAN

STATION/POSITION TIME  SKY/WX   TEMP WIND        PRES    VSBY
                                AIR  DIR/SP/G
                 (UTC)          (F)  (DEG/KT/KT) (MB)    (MI)
HARRISON CRIB    0700            78  300/  2/  3   N/A
BURNHAM HARBOR   0800            74  300/  3/  4   N/A
CALUMET HARBOR   0700            77  250/  2/  4 1019.0R
BURNS HARBOR     0702            76  180/  5/  8 1020.0R
MICHIGAN CITY    0700            76  150/  3/  3   N/A
$$

ABBREVIATIONS USED IN REMARKS
   TC - TEMPERATURE IN CELSIUS
  WCI - WIND CHILL INDEX
   HX - HEAT INDEX
  VSB - VISIBILITY
$$




USA.gov is the U.S. government's official web portal to all federal, state and local government web resources and services.